Zurück zum Katalog

ADITYA-L1

AktivWissenschaftLPO
NORAD 57754·PAYLOAD·🇮🇳 India

Gestartet Sep 2, 2023 von Satish Dhawan Space Centre

Loading…

TLE

VeraltetSource: Space-Track

Epoche: Sep 14, 2023, 20:33 UTC

1 57754U 23132A   23257.85684028 -.00001335  00000-0  00000-0 0  9992
2 57754  19.2554  17.2188 8437217 354.9359 359.1120  0.99301021    10

Verfolge ADITYA-L1 in Echtzeit mit AllMySat

Download on the App Store